Weather History for PHKO - May, 2014

Change the Weather History Date:

Monday, May 12, 2014

  Actual Average (WUND) Record (WUND)
Temperature  
Mean Temperature 76 °F -  
Max Temperature 82 °F - - (-1)
Min Temperature 71 °F - - (-1)
Cooling Degree Days 12    
Growing Degree Days 26 (Base 50)    
Moisture  
Dew Point 65 °F    
Average Humidity 66    
Maximum Humidity 78    
Minimum Humidity 52    
Precipitation  
Precipitation 0.00 in - - ()
Sea Level Pressure  
Sea Level Pressure 29.95 in    
Wind  
Wind Speed 7 mph (East)    
Max Wind Speed 13 mph    
Max Gust Speed -    
Visibility 10 miles    
Events      
Averages and records for this station are not official NWS values.
T = Trace of Precipitation, MM = Missing Value Source: NWS Daily Summary

Daily Weather History Graph

Daily Weather History Graph

Search for Another Location

Airport or City:

Trip Planner

Search our weather history database for the weather conditions in past years. The results will help you decide how hot, cold, wet, or windy it might be!

Date:

Astronomy

May. 12, 2014 Rise Set
Actual Time 5:49 AM HST 6:51 PM HST
Civil Twilight 5:26 AM HST 7:15 PM HST
Nautical Twilight 4:58 AM HST 7:42 PM HST
Astronomical Twilight 4:30 AM HST 8:11 PM HST
Moon 5:15 PM HST (5/12) 4:16 AM HST (5/12)
Length of Visible Light 13h 49m
Length of Day
13h 02m
Waxing Gibbous, 96% of the Moon is Illuminated
May 12
Waxing Gibbous
May 14
Full
May 21
Last Quarter
May 28
New
Jun 5
First Quarter

Hourly Weather History & Observations

Time (HST) Temp. Heat Index Dew Point Humidity Pressure Visibility Wind Dir Wind Speed Gust Speed Precip Events Conditions
12:53 AM 75.9 °F - 61.0 °F 60% 29.98 in 10.0 mi North 6.9 mph - N/A   Scattered Clouds
1:53 AM 73.9 °F - 61.0 °F 64% 29.96 in 10.0 mi NNE 5.8 mph - N/A   Partly Cloudy
2:53 AM 73.9 °F - 60.1 °F 62% 29.94 in 10.0 mi NW 8.1 mph - N/A   Scattered Clouds
3:53 AM 71.6 °F - 64.4 °F 78% 29.95 in 10.0 mi ENE 5.8 mph - N/A   Clear
4:53 AM 71.1 °F - 63.0 °F 75% 29.96 in 10.0 mi NE 3.5 mph - N/A   Clear
5:53 AM 71.1 °F - 61.0 °F 70% 29.96 in 10.0 mi ENE 3.5 mph - N/A   Scattered Clouds
6:53 AM 73.9 °F - 63.0 °F 68% 29.98 in 10.0 mi NNE 5.8 mph - N/A   Overcast
7:53 AM 80.1 °F 81.5 °F 63.0 °F 56% 29.99 in 10.0 mi NNE 4.6 mph - N/A   Clear
8:53 AM 82.0 °F 83.1 °F 63.0 °F 52% 30.00 in 10.0 mi NW 5.8 mph - N/A   Clear
9:53 AM 82.0 °F 84.1 °F 66.0 °F 58% 30.00 in 10.0 mi Variable 6.9 mph - N/A   Clear
10:53 AM 81.0 °F 83.3 °F 66.9 °F 62% 29.98 in 10.0 mi WSW 8.1 mph - N/A   Clear
11:53 AM 82.9 °F 85.0 °F 66.0 °F 56% 29.97 in 10.0 mi SSW 10.4 mph - N/A   Mostly Cloudy
12:53 PM 82.9 °F 85.0 °F 66.0 °F 56% 29.96 in 10.0 mi South 10.4 mph - N/A   Scattered Clouds
1:53 PM 82.0 °F 84.5 °F 66.9 °F 60% 29.94 in 10.0 mi South 12.7 mph - N/A   Overcast
2:53 PM 82.9 °F 85.4 °F 66.9 °F 58% 29.92 in 10.0 mi South 11.5 mph - N/A   Mostly Cloudy
3:53 PM 82.0 °F 84.1 °F 66.0 °F 58% 29.91 in 10.0 mi SSW 10.4 mph - N/A   Mostly Cloudy
4:53 PM 80.1 °F 82.7 °F 68.0 °F 67% 29.91 in 10.0 mi South 8.1 mph - N/A   Overcast
5:53 PM 79.0 °F - 68.0 °F 69% 29.91 in 10.0 mi Calm Calm - N/A   Overcast
6:53 PM 78.1 °F - 68.0 °F 71% 29.92 in 10.0 mi South 4.6 mph - 0.00 in   Scattered Clouds
7:53 PM 78.1 °F - 69.1 °F 74% 29.93 in 10.0 mi SE 8.1 mph - N/A   Overcast
8:53 PM 77.0 °F - 68.0 °F 74% 29.95 in 10.0 mi East 4.6 mph - N/A   Overcast
9:02 PM 77.0 °F - 68.0 °F 74% 29.95 in 10.0 mi NE 5.8 mph - N/A   Overcast
9:53 PM 77.0 °F - 68.0 °F 74% 29.96 in 10.0 mi NNE 5.8 mph - N/A   Overcast
10:53 PM 75.9 °F - 68.0 °F 76% 29.95 in 10.0 mi ENE 3.5 mph - N/A   Mostly Cloudy
11:53 PM 75.9 °F - 66.9 °F 74% 29.93 in 10.0 mi SE 3.5 mph - N/A   Clear